Regional Weather Roundup
Issued by NWS

Home | Current Version | Previous Version | Graphics & Text | Print | Product List | Glossary On
Versions: 1 2 3 4 5 6 7 8 9 10 11 12 13 14 15 16 17 18 19 20 21 22 23 24 25 26 27 28 29 30 31 32 33 34 35 36 37 38 39 40 41 42 43 44 45 46 47 48 49 50
000
ASUS43 KMPX 280801
RWRMN
WEATHER ROUNDUP FOR MINNESOTA
NATIONAL WEATHER SERVICE TWIN CITIES/CHANHASSEN MN
300 AM CDT THU JUL 28 2016


NOTE: "FAIR" INDICATES FEW OR NO CLOUDS BELOW 12,000 FEET WITH NO
SIGNIFICANT WEATHER AND/OR OBSTRUCTIONS TO VISIBILITY. N/A MEANS
CURRENT SKY AND/OR WEATHER CONDITIONS ARE NOT AVAILABLE.

MNZ060>063-068>070-280900-
   Twin Cities Metro

CITY           SKY/WX    TMP DP  RH WIND       PRES   REMARKS
TWIN CITIES    CLOUDY    66  62  87 N10       29.98F
ST PAUL        CLOUDY    66  64  93 N12       29.99S
CRYSTAL        CLOUDY    65  61  87 N6        29.99S
BLAINE         CLOUDY    66  64  94 N10       30.00F
LAKEVILLE      CLOUDY    64  64 100 N7        29.98S
EDEN PRAIRIE   CLOUDY    67  63  87 N12       29.98S
LAKEVILLE      CLOUDY    64  64 100 N7        29.98S
SOUTH ST PAUL  CLOUDY    67  65  94 N7        29.98S
LAKE ELMO      CLOUDY    64  64 100 N6        30.00S
$$
MNZ001>005-007-008-013>017-022>024-027-028-280900-
   Northwest Minnesota

CITY           SKY/WX    TMP DP  RH WIND       PRES   REMARKS
HALLOCK        CLEAR     57  54  88 NE5       30.11S
ROSEAU         CLEAR     55  52  88 NE5       30.11F
WARROAD        CLEAR     61  57  88 NE7       30.12F
THIEF RVR FALL PTCLDY    61  56  83 NE10      30.11S
CROOKSTON      CLOUDY    61  57  88 NE3       30.09F
FOSSTON        MOCLDY    61  57  88 N6        30.09S
DETROIT LAKES  PTCLDY    63  61  94 CALM      30.08S
MOORHEAD       CLOUDY    61  59  94 N3        30.07S
PARK RAPIDS    PTCLDY    63  61  93 N6        30.07S
MAHNOMEN       FAIR      61  60  97 NE6       30.07F
$$
MNZ006-009>011-018-025>026-280900-
   North Central Minnesota

CITY           SKY/WX    TMP DP  RH WIND       PRES   REMARKS
BAUDETTE       CLEAR     57  53  86 NE6       30.11F
FLAG ISLAND    CLEAR     61  54  77 E3        30.12S
INTL FALLS     CLEAR     60  53  77 NE6       30.10S
WASKISH        CLEAR     57  55  94 NE7       30.09F
BIG FORK       CLEAR     57  54  88 N5        30.09S
LONGVILLE      MOCLDY    63  61  94 N3        30.06F
GRAND RAPIDS   CLOUDY    58  57  97 E5        30.09S FOG
CRANE LAKE     CLEAR     48  48 100 CALM      30.11S
ORR            CLEAR     54  52  94 CALM      30.07S
COOK           CLEAR     54  52  94 CALM      30.09S
WALKER         PTSUNNY   59  58  97 CALM      30.08R
$$
MNZ012-019>021-037-280900-
   Northeast Minnesota

CITY           SKY/WX    TMP DP  RH WIND       PRES   REMARKS
DULUTH         MOCLDY    60  56  86 N3        30.07R
ELY            CLEAR     52  50  93 CALM      30.08S FOG
HIBBING        FOG       51  51 100 NW3       30.08S VSB 1/2
EVELETH          N/A     55  54  97 CALM      30.09S FOG
DULUTH HARBOR  CLOUDY    63  57  82 CALM      30.06R
TWO HARBORS    MOCLDY    64  57  77 CALM      30.05R
SILVER BAY     CLEAR     57  54  88 N3        30.05S
GRAND MARAIS     N/A     59  54  83 N6        30.05F
$$
MNZ029>031-032-039>041-046>048-054>057-064-280900-
   West Central Minnesota

CITY           SKY/WX    TMP DP  RH WIND       PRES   REMARKS
FERGUS FALLS   CLOUDY    64  64 100 CALM      30.06S
WHEATON        CLOUDY    63  61  94 N3        30.06F
MORRIS         CLOUDY    61  61 100 N3        30.04S
ALEXANDRIA     CLOUDY    63  61  93 NE6       30.06S
ELBOW LAKE     MOCLDY    64  63  97 CALM      30.05S
WADENA         PTCLDY    61  57  88 N3        30.05F
GLENWOOD       CLOUDY    63  61  94 NE6       30.05S
APPLETON       PTCLDY    63  59  88 N3        30.03S
BENSON         PTCLDY    59  55  88 N3        30.03S
ORTONVILLE     PTCLDY    63  57  82 N8        30.04S
MADISON        PTCLDY    63  59  88 NW7       30.03F
WILLMAR        FAIR      64  63  94 NE3       30.03F
$$
MNZ033>034-036-042>043-049>051-058-059-280900-
   Central Minnesota

CITY           SKY/WX    TMP DP  RH WIND       PRES   REMARKS
ST CLOUD       CLOUDY    61  60  97 NE5       30.04R
SAUK CENTRE    FAIR      63  60  91 NE3       30.05S
PAYNESVILLE    PTCLDY    61  61 100 NE6       30.04F
AITKIN         CLOUDY    57  54  88 N1        30.05S VSB 1/2
PINE RIVER     CLOUDY    63  63 100 N3        30.09F
BRAINERD       CLOUDY    62  61  96 CALM      30.06S
STAPLES        PTCLDY    61  61 100 CALM      30.05F
LONG PRAIRIE   FAIR      61  59  94 NE3       30.06S
LITTLE FALLS   CLOUDY    59  55  88 CALM      30.05S
LITCHFIELD     PTCLDY    64  64 100 NE8       30.03S
BUFFALO        CLOUDY    63  60  89 N5        30.03S
MAPLE LAKE     CLOUDY    64  62  94 N5        30.04S
HUTCHINSON     CLOUDY    65  64  94 N3        30.03S
$$
MNZ037-044-045-052-053-280900-
   East Central Minnesota

CITY           SKY/WX    TMP DP  RH WIND       PRES   REMARKS
PRINCETON      CLOUDY    63  61  94 N8        30.03S
MORA           PTCLDY    55  55 100 CALM      30.05S
CAMBRIDGE      CLOUDY    64  57  77 N5        30.01S
RUSH CITY      RAIN      60  58  94 N3        30.03S
MOOSE LAKE     MOCLDY    54  54 100 CALM      30.04F
HINCKLEY       CLOUDY    59  59 100 N5        30.04S
CLOQUET        CLOUDY    57  55  94 CALM      30.06F
MCGREGOR       CLOUDY    59  55  88 CALM      30.07S
$$
MNZ071>073-080-081-089-090-097-098-280900-
   Southwest Minnesota

CITY           SKY/WX    TMP DP  RH WIND       PRES   REMARKS
MONTEVIDEO     PTCLDY    61  57  88 N5        30.04S
GRANITE FALLS  PTCLDY    63  61  93 NW6       30.03F
CANBY          CLOUDY    63  59  87 W8        30.04F
MARSHALL       MOCLDY    60  58  92 NW7       30.04S
REDWOOD FALLS  CLOUDY    65  62  90 N5        30.01F
OLIVIA         PTCLDY    63  59  88 NE3       30.01F
PIPESTONE      PTCLDY    64  57  77 N2        30.04F
WINDOM         CLOUDY    63  61  94 NW6       30.02F
WORTHINGTON    CLEAR     62  59  90 NE5       30.03F
JACKSON        CLEAR     63  61  94 NW5       30.03S
TRACY          PTCLDY    62  60  93 NW6       30.03F
SLAYTON        PTCLDY    61  58  90 NW7       30.04F
$$
MNZ065>067-074>077-082>085-091>093-280900-
   South Central Minnesota

CITY           SKY/WX    TMP DP  RH WIND       PRES   REMARKS
MANKATO        PTCLDY    64  59  82 N7        30.00R
NEW ULM        MOCLDY    64  64 100 N5        30.01R
ST JAMES       CLEAR     59  57  94 CALM      30.01F
FAIRMONT       CLEAR     64  59  82 N6        29.99S
GLENCOE        CLOUDY    66  65  97 N6        30.01S
FARIBAULT      CLOUDY    66  64  94 NW7       29.98F
OWATONNA       MOCLDY    66  64  94 NW6       29.98S
WASECA         MOCLDY    63  61  94 N5        30.00S
ALBERT LEA     PTCLDY    66  64  94 CALM      29.98S
$$
MNZ078>079-086>088-094>096-280900-
   Southeast Minnesota

CITY           SKY/WX    TMP DP  RH WIND       PRES   REMARKS
ROCHESTER      CLOUDY    66  66 100 N8        29.95F
RED WING       CLOUDY    66  64  94 CALM      29.95S
STANTON        CLOUDY    68  64  88 N7        29.95F
DODGE CENTER   CLOUDY    64  64 100 N6        29.96F
WINONA         CLOUDY    70  68  94 N5        29.93R
AUSTIN         PTCLDY    64  63  94 NW6       29.96F
PRESTON        CLOUDY    65  64  94 N8        29.94F
$$
ABBREVIATIONS USED IN REMARKS
   TC - TEMPERATURES IN CELSIUS
  WCI - WIND CHILL INDEX
   HX - HEAT INDEX
  VSB - VISIBILITY
$$




USA.gov is the U.S. government's official web portal to all federal, state and local government web resources and services.